[[{"header":{"parameterUnit":"m.s-1","parameterCategory":1,"la1":30.2992,"la2":30.254,"lo1":-89.0895,"lo2":-89.0443,"dy":0.0025,"dx":0.0025,"nx":19,"ny":19,"refTime":"2026-04-16T09:00:00:Z","depth":0,"parameterNumber":2,"parameterNumberName":"U-component_of_WINDS"},"data":[0,0,0,-0.3437,-0.3436,-0.3339,-0.3339,-0.3232,-0.3232,0,0,0,0,0,0,0,0,0,0,0,-0.3476,-0.3475,-0.3438,-0.3435,-0.3339,-0.3339,-0.3233,-0.3232,0,0,0,0,0,0,0,0,0,0,0,-0.3476,-0.3475,-0.3475,-0.3435,-0.3339,-0.3339,-0.3233,-0.33,0,0,0,0,0,0,0,0,0,0,-0.339,-0.3435,-0.3476,-0.3475,-0.3435,-0.3339,-0.3339,-0.3302,-0.3295,-0.3283,0,-0.3274,0,-0.3251,-0.3225,-0.3225,0,0,0,-0.3428,-0.3441,-0.3406,-0.3475,-0.3434,-0.334,-0.3381,-0.3298,-0.329,-0.3274,-0.3273,-0.3268,-0.325,-0.3225,-0.3224,-0.3178,-0.3178,0,0,-0.3434,-0.3464,-0.3412,-0.3401,-0.3417,-0.3384,-0.3378,-0.3293,-0.3294,-0.3272,-0.3266,-0.3248,-0.3224,-0.3224,-0.3178,-0.3178,0,0,0,-0.3454,-0.3468,-0.3435,-0.3406,-0.3388,-0.3381,-0.3374,-0.3298,-0.3285,-0.3264,-0.3247,-0.3224,-0.3223,-0.3178,-0.3178,-0.3214,0,0,0,-0.3457,-0.3479,-0.3437,-0.3455,-0.339,-0.3341,-0.3381,-0.329,-0.328,-0.3247,-0.3224,-0.3222,-0.3178,-0.3178,-0.3213,-0.3226,0,0,0,-0.3479,-0.3482,-0.3471,-0.3457,-0.3416,-0.3342,-0.3324,-0.3287,-0.327,-0.3225,-0.3222,-0.3177,-0.3178,-0.3211,-0.3224,-0.3224,0,0,0,-0.3511,-0.3504,-0.3472,-0.3457,-0.3417,-0.3365,-0.3324,-0.3283,-0.3249,-0.3223,-0.3178,-0.3178,-0.3211,-0.3223,-0.3223,-0.3229,-0.3235,0,0,-0.3519,-0.3506,-0.3495,-0.3464,-0.3425,-0.3377,-0.3343,-0.3284,-0.3252,-0.3205,-0.3203,-0.3213,-0.3224,-0.3223,-0.3253,-0.3258,0,0,0,-0.3507,-0.35,-0.3483,-0.3452,-0.3407,-0.3369,-0.3312,-0.329,-0.3249,-0.3234,-0.3211,-0.3217,-0.3215,-0.3217,-0.3221,-0.3219,-0.318,-0.318,-0.318,-0.3562,-0.3522,-0.3501,-0.345,-0.3421,-0.3362,-0.3335,-0.3296,-0.3263,-0.3259,-0.3245,-0.3268,-0.3271,-0.3274,-0.3272,-0.3245,-0.3245,-0.3245,-0.3245,-0.3571,-0.3554,-0.3512,-0.3477,-0.3436,-0.3406,-0.3349,-0.3328,-0.3295,-0.3275,-0.3271,-0.3254,-0.328,-0.3276,-0.3247,-0.3247,-0.3246,-0.3246,-0.3246,-0.3603,-0.3588,-0.3561,-0.3514,-0.3482,-0.343,-0.3401,-0.3363,-0.3327,-0.3324,-0.3306,-0.3305,-0.3301,-0.3318,-0.3318,-0.3318,-0.3318,-0.3318,-0.3318,-0.3647,-0.3616,-0.3595,-0.3547,-0.3523,-0.3487,-0.3429,-0.3404,-0.3367,-0.3343,-0.3342,-0.3312,-0.329,-0.3286,-0.3319,-0.3319,-0.3319,-0.3319,-0.3319,-0.3672,-0.3661,-0.3629,-0.3605,-0.3546,-0.3518,-0.347,-0.3424,-0.3398,-0.3385,-0.3355,-0.3345,-0.3329,-0.3325,-0.3322,-0.3363,-0.3363,-0.3363,-0.3363,-0.37,-0.3689,-0.3649,-0.3613,-0.3574,-0.3528,-0.3495,-0.345,-0.3402,-0.3384,-0.3372,-0.3364,-0.3362,-0.3347,-0.3344,-0.334,-0.3384,-0.3384,-0.3384,-0.3715,-0.3697,-0.3676,-0.3628,-0.358,-0.3539,-0.3507,-0.3469,-0.3412,-0.3384,-0.3369,-0.3368,-0.3355,-0.3352,-0.3325,-0.332,-0.3312,0,0]},{"header":{"parameterUnit":"m.s-1","parameterCategory":1,"la1":30.2992,"la2":30.254,"lo1":-89.0895,"lo2":-89.0443,"dy":0.0025,"dx":0.0025,"nx":19,"ny":19,"refTime":"2026-04-16T09:00:00:Z","depth":0,"parameterNumber":3,"parameterNumberName":"V-component_of_WINDS"},"data":[0,0,0,4.3216,4.3215,4.3153,4.3152,4.3092,4.3092,0,0,0,0,0,0,0,0,0,0,0,4.3248,4.3248,4.3216,4.3215,4.3153,4.3152,4.3092,4.3092,0,0,0,0,0,0,0,0,0,0,0,4.3248,4.3248,4.3248,4.3214,4.3153,4.3152,4.3092,4.3132,0,0,0,0,0,0,0,0,0,0,4.3188,4.3232,4.3248,4.3248,4.3214,4.3153,4.3152,4.3133,4.3129,4.3129,0,4.3134,0,4.3113,4.3089,4.3089,0,0,0,4.3204,4.3235,4.3207,4.3248,4.3214,4.3153,4.3178,4.3131,4.3126,4.3124,4.3133,4.313,4.3112,4.3089,4.3089,4.3129,4.313,0,0,4.3207,4.3243,4.321,4.3204,4.3217,4.318,4.3176,4.3128,4.3139,4.3133,4.3129,4.3111,4.3089,4.3088,4.3128,4.3129,0,0,0,4.3224,4.3246,4.3218,4.3207,4.3195,4.3178,4.3174,4.3141,4.313,4.3128,4.311,4.3088,4.3088,4.3128,4.3129,4.3199,0,0,0,4.3226,4.3256,4.322,4.3241,4.3196,4.3168,4.3189,4.3133,4.3126,4.311,4.3088,4.3088,4.3127,4.3128,4.3195,4.3226,0,0,0,4.3247,4.3258,4.3254,4.3244,4.3218,4.3168,4.3153,4.3131,4.3116,4.3089,4.3087,4.3126,4.3128,4.3192,4.322,4.3247,0,0,0,4.3279,4.3316,4.3256,4.329,4.3219,4.3213,4.3153,4.3145,4.3131,4.3088,4.3127,4.3129,4.3191,4.3217,4.3244,4.3277,4.3294,0,0,4.3346,4.3325,4.3343,4.3287,4.3301,4.3219,4.3242,4.3193,4.3156,4.314,4.314,4.3197,4.322,4.3247,4.3378,4.3392,0,0,0,4.3376,4.3389,4.3384,4.3374,4.3339,4.3311,4.3256,4.3238,4.3222,4.3156,4.3212,4.3225,4.3239,4.3253,4.3265,4.3275,4.3137,4.3136,4.3136,4.352,4.3474,4.3499,4.3446,4.3436,4.3379,4.3366,4.3332,4.3285,4.33,4.3294,4.338,4.3398,4.3406,4.3417,4.3308,4.3308,4.3308,4.3309,4.3614,4.3625,4.3565,4.3568,4.3518,4.3519,4.3466,4.3434,4.3427,4.338,4.339,4.3342,4.3423,4.343,4.3313,4.3313,4.3312,4.3311,4.3311,4.3703,4.37,4.368,4.366,4.365,4.3593,4.359,4.3544,4.35,4.351,4.3499,4.3498,4.3491,4.3508,4.3508,4.3509,4.3509,4.3509,4.3509,4.3804,4.3779,4.3783,4.3751,4.3738,4.3716,4.366,4.3645,4.3617,4.3584,4.3583,4.3536,4.344,4.3417,4.3514,4.3513,4.3512,4.3512,4.3512,4.3916,4.3884,4.3891,4.3879,4.3837,4.383,4.3772,4.3747,4.3728,4.3728,4.3679,4.3615,4.359,4.3581,4.3561,4.3689,4.3689,4.3689,4.3689,4.3992,4.3975,4.3973,4.3956,4.3935,4.3883,4.3891,4.3848,4.3798,4.3783,4.3758,4.3728,4.3721,4.37,4.3688,4.3669,4.3821,4.3821,4.3821,4.4058,4.4038,4.4054,4.4007,4.3972,4.3942,4.3948,4.393,4.3866,4.3826,4.3771,4.3765,4.3717,4.3703,4.3661,4.3643,4.3607,0,0]}]]